2023/10/02 00:00:00, 0.0,13.8
2023/10/02 00:10:00, 0.0,13.9
2023/10/02 00:20:00, 0.0,14.1
2023/10/02 00:30:00, 0.0,14.0
2023/10/02 00:40:00, 0.0,13.7
2023/10/02 00:50:00, 0.0,13.3
2023/10/02 01:00:00, 0.0,13.4
2023/10/02 01:10:00, 0.0,13.7
2023/10/02 01:20:00, 0.0,13.6
2023/10/02 01:30:00, 0.0,13.7
2023/10/02 01:40:00, 0.0,13.9
2023/10/02 01:50:00, 0.0,13.4
2023/10/02 02:00:00, 0.0,13.1
2023/10/02 02:10:00, 0.0,13.6
2023/10/02 02:20:00, 0.1,13.1
2023/10/02 02:30:00, 0.1,13.0
2023/10/02 02:40:00, 0.1,13.0
2023/10/02 02:50:00, 0.1,13.4
2023/10/02 03:00:00, 0.1,13.4
2023/10/02 03:10:00, 0.1,12.7
2023/10/02 03:20:00, 0.1,12.9
2023/10/02 03:30:00, 0.1,13.0
2023/10/02 03:40:00, 0.1,12.5
2023/10/02 03:50:00, 0.1,12.3
2023/10/02 04:00:00, 0.1,12.3
2023/10/02 04:10:00, 0.1,12.8
2023/10/02 04:20:00, 0.1,12.9
2023/10/02 04:30:00, 0.1,13.1
2023/10/02 04:40:00, 0.1,12.8
2023/10/02 04:50:00, 0.1,13.0
2023/10/02 05:00:00, 0.1,12.7
2023/10/02 05:10:00, 0.1,12.8
2023/10/02 05:20:00, 0.1,12.5
2023/10/02 05:30:00, 0.1,12.6
2023/10/02 05:40:00, 0.1,12.5
2023/10/02 05:50:00, 0.1,12.6
2023/10/02 06:00:00, 0.1,12.5
2023/10/02 06:10:00, 0.1,12.7
2023/10/02 06:20:00, 0.1,12.3
2023/10/02 06:30:00, 0.1,13.0
2023/10/02 06:40:00, 0.1,12.6
2023/10/02 06:50:00, 0.1,13.2
2023/10/02 07:00:00, 0.1,13.1
2023/10/02 07:10:00, 0.1,13.1
2023/10/02 07:20:00, 0.1,13.5
2023/10/02 07:30:00, 0.1,13.4
2023/10/02 07:40:00, 0.1,13.3
2023/10/02 07:50:00, 0.1,14.0
2023/10/02 08:00:00, 0.1,14.6
2023/10/02 08:10:00, 0.1,19.0
2023/10/02 08:20:00, 0.1,19.0
2023/10/02 08:30:00, 0.1,21.2
2023/10/02 08:40:00, 0.1,22.4
2023/10/02 08:50:00, 0.1,22.8
2023/10/02 09:00:00, 0.1,21.8
2023/10/02 09:10:00, 0.1,22.3
2023/10/02 09:20:00, 0.1,22.8
2023/10/02 09:30:00, 0.1,21.9
2023/10/02 09:40:00, 0.1,20.7
2023/10/02 09:50:00, 0.1,20.2
2023/10/02 10:00:00, 0.1,20.0
2023/10/02 10:10:00, 0.1,19.9
2023/10/02 10:20:00, 0.1,20.1
2023/10/02 10:30:00, 0.1,22.1
2023/10/02 10:40:00, 0.1,20.1
2023/10/02 10:50:00, 0.1,21.7
2023/10/02 11:00:00, 0.1,21.1
2023/10/02 11:10:00, 0.1,22.3
2023/10/02 11:20:00, 0.1,21.3
2023/10/02 11:30:00, 0.1,21.3
2023/10/02 11:40:00, 0.1,22.8
2023/10/02 11:50:00, 0.1,20.7
2023/10/02 12:00:00, 0.1,24.2
2023/10/02 12:10:00, 0.1,25.5
2023/10/02 12:20:00, 0.1,22.4
2023/10/02 12:30:00, 0.1,22.3
2023/10/02 12:40:00, 0.1,23.1
2023/10/02 12:50:00, 0.1,22.5
2023/10/02 13:00:00, 0.1,22.5
2023/10/02 13:10:00, 0.1,24.3
2023/10/02 13:20:00, 0.1,25.5
2023/10/02 13:30:00, 0.1,21.3
2023/10/02 13:40:00, 0.1,23.4
2023/10/02 13:50:00, 0.1,20.3
2023/10/02 14:00:00, 0.1,21.0
2023/10/02 14:10:00, 0.1,20.8
2023/10/02 14:20:00, 0.1,21.6
2023/10/02 14:30:00, 0.1,21.9
2023/10/02 14:40:00, 0.1,19.9
2023/10/02 14:50:00, 0.1,19.4
2023/10/02 15:00:00, 0.1,19.5
2023/10/02 15:10:00, 0.1,18.4
2023/10/02 15:20:00, 0.1,19.9
2023/10/02 15:30:00, 0.1,20.5
2023/10/02 15:40:00, 0.1,18.6
2023/10/02 15:50:00, 0.1,18.4
2023/10/02 16:00:00, 0.1,17.5
2023/10/02 16:10:00, 0.1,18.4
2023/10/02 16:20:00, 0.1,18.0
2023/10/02 16:30:00, 0.1,18.5
2023/10/02 16:40:00, 0.1,18.3
2023/10/02 16:50:00, 0.1,17.4
2023/10/02 17:00:00, 0.1,17.5
2023/10/02 17:10:00, 0.1,16.7
2023/10/02 17:20:00, 0.1,15.7
2023/10/02 17:30:00, 0.1,14.9
2023/10/02 17:40:00, 0.1,14.8
2023/10/02 17:50:00, 0.1,14.8
2023/10/02 18:00:00, 0.1,14.1
2023/10/02 18:10:00, 0.1,13.2
2023/10/02 18:20:00, 0.1,13.2
2023/10/02 18:30:00, 0.1,13.1
2023/10/02 18:40:00, 0.1,12.8
2023/10/02 18:50:00, 0.1,12.9
2023/10/02 19:00:00, 0.1,12.7
2023/10/02 19:10:00, 0.1,12.9
2023/10/02 19:20:00, 0.1,13.0
2023/10/02 19:30:00, 0.1,13.1
2023/10/02 19:40:00, 0.1,13.5
2023/10/02 19:50:00, 0.1,13.1
2023/10/02 20:00:00, 0.1,12.9
2023/10/02 20:10:00, 0.1,13.1
2023/10/02 20:20:00, 0.1,13.1
2023/10/02 20:30:00, 0.1,13.1
2023/10/02 20:40:00, 0.1,13.5
2023/10/02 20:50:00, 0.1,13.4
2023/10/02 21:00:00, 0.1,13.3
2023/10/02 21:10:00, 0.1,13.1
2023/10/02 21:20:00, 0.1,13.1
2023/10/02 21:30:00, 0.1,12.5
2023/10/02 21:40:00, 0.1,13.0
2023/10/02 21:50:00, 0.1,12.9
2023/10/02 22:00:00, 0.1,12.7
2023/10/02 22:10:00, 0.1,11.8
2023/10/02 22:20:00, 0.1,12.2
2023/10/02 22:30:00, 0.1,12.2
2023/10/02 22:40:00, 0.1,11.2
2023/10/02 22:50:00, 0.1,11.2
2023/10/02 23:00:00, 0.1,10.7
2023/10/02 23:10:00, 0.1,10.6
